Location: Navalmoral
(40.4603°N, 4.7686°W)
Time: 09:29:19
(UTC+00:00)

ARGOS Delta rocket - Pass Details

Date: 05 August 2024
Orbit: 632 x 831 km, 96.5° (Epoch: 14 September)

Event Time Altitude Azimuth Distance (km) Brightness Sun altitude
Exits shadow 20:30:38 - 173° (S) 3,099 6.8 -11.2°
Reaches altitude 10° 20:32:35 10° 175° (S) 2,326 6.1 -11.5°
Maximum altitude 20:37:46 74° 260° (W) 842 4.3 -12.3°
Drops below altitude 10° 20:43:11 10° 346° (NNW) 2,433 7.4 -13.1°
Sets 20:45:36 0° 348° (NNW) 3,380 8.1 -13.5°
